Waarnemingen

Advertentie
Mijn weer
Nancy/Essey, Frankrijk (7180): temperatuur & dauwpunt: 09.11.2018 22:00:00 - 15.11.2018 22:00:00 (CET)Nancy/Essey, Frankrijk (7180): temperatuur 5cm: 09.11.2018 22:00:00 - 15.11.2018 22:00:00 (CET)Nancy/Essey, Frankrijk (7180): temperatuur -20cm & temperatuur -100cm: 09.11.2018 22:00:00 - 15.11.2018 22:00:00 (CET)Nancy/Essey, Frankrijk (7180): windsnelheid & windstoten: 09.11.2018 22:00:00 - 15.11.2018 22:00:00 (CET)Nancy/Essey, Frankrijk (7180): windrichting: 09.11.2018 22:00:00 - 15.11.2018 22:00:00 (CET)Nancy/Essey, Frankrijk (7180): luchtdruk: 09.11.2018 22:00:00 - 15.11.2018 22:00:00 (CET)Nancy/Essey, Frankrijk (7180): zicht: 09.11.2018 22:00:00 - 15.11.2018 22:00:00 (CET)Nancy/Essey, Frankrijk (7180): Zonneschijnduur: 09.11.2018 22:00:00 - 15.11.2018 22:00:00 (CET)Nancy/Essey, Frankrijk (7180): neerslag: 09.11.2018 22:00:00 - 15.11.2018 22:00:00 (CET)
Datum & Tijd tt [°C] td [°C] tt 5cm [°C] tt -20cm [°C] tt -100cm [°C] ff [km/u] ff [kn] fx [km/u] fx [kn] dd ppp [hPa] vv [km] sd [min] rr [mm]
15.11.2018 22:00:00 4,0 3,9 3,9 10,3 12,8 9 5 20 11 O 1027,1 1,9 0 0,0
15.11.2018 21:00:00 4,0 3,7 4,0 10,3 12,8 14 8 21 11 ONO 1026,8 1,3 0 0,0
15.11.2018 20:00:00 4,2 3,9 4,2 10,3 12,8 15 8 19 10 ONO 1026,7 1,8 0 0,0
15.11.2018 19:00:00 4,7 4,4 4,7 10,3 12,8 11 6 18 10 O 1026,6 3,7 0 0,0
15.11.2018 18:00:00 5,1 4,8 5,1 10,3 12,8 13 7 19 11 NO 1026,2 4,9 0 0,0
15.11.2018 17:00:00 5,3 4,9 5,3 10,3 12,8 13 7 22 12 OZO 1026,1 5 0 0,0
15.11.2018 16:00:00 5,7 5,3 6,0 10,3 12,8 11 6 20 11 O 1026,3 8 0 0,0
15.11.2018 15:00:00 6,0 5,6 6,4 10,3 12,8 10 5 20 11 ONO 1026,4 9 0 0,0
15.11.2018 14:00:00 5,8 5,4 6,5 10,3 12,9 11 6 19 11 ONO 1026,4 11 0 0,0
15.11.2018 13:00:00 5,6 5,3 6,3 10,3 12,8 13 7 20 11 NO 1026,7 8 0 0,0
15.11.2018 12:00:00 5,3 5,0 5,8 10,3 12,8 9 5 16 9 NO 1027,0 2,9 0 0,0
15.11.2018 11:00:00 5,1 5,0 5,4 10,3 12,8 8 5 15 8 ONO 1027,6 1,2 0 0,0
15.11.2018 10:00:00 4,7 4,6 4,7 10,3 12,8 8 4 17 9 ONO 1027,6 1,0 0 0,0
15.11.2018 09:00:00 4,4 4,3 4,4 10,4 12,8 8 4 15 8 ONO 1027,4 0,7 0 0,0
15.11.2018 08:00:00 4,3 4,2 4,0 10,4 12,8 6 3 16 8 O 1027,3 0,7 0 0,0
15.11.2018 07:00:00 3,9 3,8 3,8 10,5 12,8 8 4 19 11 ONO 1027,2 1,3 0 0,0
15.11.2018 06:00:00 4,2 4,1 4,2 10,5 12,8 10 6 16 8 ONO 1027,2 0,8 0 0,0
15.11.2018 05:00:00 4,4 4,3 4,2 10,6 12,8 8 4 18 10 O 1027,2 0,5 0 0,0
15.11.2018 04:00:00 4,2 4,1 3,9 10,6 12,8 9 5 18 10 ONO 1027,2 0,4 0 0,0
15.11.2018 03:00:00 3,8 3,7 3,9 10,6 12,8 13 7 19 10 NO 1027,5 0,5 0 0,0
15.11.2018 02:00:00 4,8 4,7 4,5 10,7 12,8 5 3 13 7 O 1027,1 0,3 0 0,0
15.11.2018 01:00:00 4,5 4,4 4,6 10,7 12,8 8 4 11 6 O 1027,2 0,1 0 0,0
15.11.2018 00:00:00 4,7 4,6 4,8 10,7 12,8 6 3 12 7 Z 1027,3 0,2 0 0,0
14.11.2018 23:00:00 5,0 4,7 4,9 10,7 12,9 5 3 12 6 ZZO 1027,7 0,2 0 0,0
14.11.2018 22:00:00 4,9 4,6 5,0 10,7 12,8 9 5 14 7 ZO 1027,8 0,2 0 0,0
14.11.2018 21:00:00 5,4 5,1 5,4 10,8 12,8 8 4 11 6 ZZO 1027,9 0,2 0 0,2
14.11.2018 20:00:00 6,0 5,7 6,0 10,7 12,8 3 2 11 6 O 1027,9 0,2 0 0,0
14.11.2018 19:00:00 6,0 5,7 5,8 10,7 12,8 6 3 9 5 Z 1028,1 0,1 0 0,0
14.11.2018 18:00:00 5,8 5,5 5,8 10,7 12,8 5 3 11 6 O 1028,1 0,2 0 0,0
14.11.2018 17:00:00 6,1 5,8 6,1 10,7 12,8 7 4 11 6 ONO 1028,3 1,4 0 0,0
14.11.2018 16:00:00 6,6 6,2 7,2 10,7 12,9 4 2 11 6 OZO 1028,3 3,0 0 0,0
14.11.2018 15:00:00 6,7 6,4 7,6 10,6 12,8 7 4 14 7 OZO 1028,3 2,5 0 0,0
14.11.2018 14:00:00 6,5 6,2 7,6 10,6 12,8 6 3 12 7 NNO 1028,5 1,9 0 0,0
14.11.2018 13:00:00 6,2 5,9 7,0 10,6 12,8 6 3 14 7 NO 1029,1 1,3 0 0,0
14.11.2018 12:00:00 5,4 5,1 5,8 10,6 12,8 4 2 15 8 N 1029,5 0,5 0 0,0
14.11.2018 11:00:00 4,4 4,1 5,1 10,6 12,8 3 2 11 6 ONO 1029,8 0,2 0 0,0
14.11.2018 10:00:00 4,2 4,1 4,2 10,6 12,8 4 2 8 5 ONO 1029,8 0,2 0 0,0
14.11.2018 09:00:00 3,7 3,6 4,0 10,7 12,8 6 3 9 5 ZO 1030,1 0,2 0 0,0
14.11.2018 08:00:00 4,0 3,9 4,0 10,8 12,8 4 2 6 4 O 1030,2 0,1 0 0,0
14.11.2018 07:00:00 3,9 3,6 3,8 10,8 12,8 2 1 7 4 NO 1030,1 0,2 0 0,0
14.11.2018 06:00:00 3,9 3,6 3,9 10,9 12,8 3 2 8 5 O 1030,8 0,2 0 0,0
14.11.2018 05:00:00 4,1 3,8 4,1 11,0 12,8 2 1 5 3 O 1031,0 0,1 0 0,0
14.11.2018 04:00:00 4,6 4,3 4,2 11,1 12,8 4 2 8 4 ZZO 1031,4 0,1 0 0,0
14.11.2018 03:00:00 3,9 3,6 2,7 11,3 12,8 1 1 6 3 NW 1031,8 0,1 0 0,0
14.11.2018 02:00:00 3,2 2,9 0,5 11,4 12,8 4 2 9 5 Z 1032,0 0,2 0 0,0
14.11.2018 01:00:00 2,6 2,2 -0,2 11,5 12,8 2 1 6 3 OZO 1032,2 0,2 0 0,0
14.11.2018 00:00:00 3,6 3,2 0,0 11,7 12,8 2 1 7 4 NNO 1032,3 1,5 0 0,0
13.11.2018 23:00:00 3,7 3,3 0,1 11,8 12,8 2 1 6 3 O 1032,3 1,3 0 0,0
13.11.2018 22:00:00 4,5 3,9 0,7 11,9 12,8 3 2 5 3 O 1032,3 5 0 0,0
13.11.2018 21:00:00 5,0 4,3 1,7 12,0 12,8 4 2 8 4 OZO 1032,2 11 0 0,0
13.11.2018 20:00:00 5,4 3,7 1,8 12,0 12,8 3 1 8 4 WNW 1032,1 22 0 0,0
13.11.2018 19:00:00 7,3 5,3 3,5 12,1 12,8 4 2 8 5 ZZO 1031,8 42 0 0,0
13.11.2018 18:00:00 9,1 5,8 6,0 12,1 12,8 6 3 14 8 ZO 1031,1 60 0 0,0
13.11.2018 17:00:00 11,8 6,3 9,9 12,0 12,7 7 4 19 11 ZW 1030,4 60 18 0,0
13.11.2018 16:00:00 13,2 6,1 12,3 12,0 12,8 13 7 26 14 WZW 1029,7 59 39 -
13.11.2018 15:00:00 13,9 7,0 13,9 12,0 12,8 10 6 34 18 W 1029,2 59 49 0,0
13.11.2018 14:00:00 13,5 7,0 12,6 11,9 12,8 16 8 34 18 W 1029,1 52 35 0,0
13.11.2018 13:00:00 12,5 7,4 12,8 11,9 12,8 16 9 32 17 WZW 1029,1 60 3 0,0
13.11.2018 12:00:00 12,6 8,7 12,6 11,9 12,7 13 7 31 17 W 1028,6 60 2 0,0
13.11.2018 11:00:00 12,2 9,0 12,7 11,9 12,7 16 9 28 15 ZW 1028,4 60 29 0,0
13.11.2018 10:00:00 11,5 9,1 10,0 12,0 12,7 11 6 34 18 ZZW 1027,8 60 8 0,0
13.11.2018 09:00:00 10,8 8,9 9,7 12,0 12,7 16 8 29 16 ZZW 1026,9 15 0 0,2
13.11.2018 08:00:00 10,6 8,5 10,0 12,0 12,8 10 6 24 13 Z 1025,8 60 0 0,0
13.11.2018 07:00:00 10,9 9,2 10,1 12,0 12,7 14 7 29 16 Z 1024,9 60 0 0,4
13.11.2018 06:00:00 11,0 9,7 10,2 12,0 12,7 16 8 26 14 Z 1024,0 19 0 1,0
13.11.2018 05:00:00 11,1 9,8 10,3 12,1 12,7 11 6 19 10 Z 1023,7 15 0 0,8
13.11.2018 04:00:00 11,3 10,0 10,4 12,1 12,7 6 4 14 8 Z 1023,8 7 0 1,6
13.11.2018 03:00:00 11,6 9,8 10,5 12,1 12,7 7 4 18 10 ZW 1023,0 19 0 1,0
13.11.2018 02:00:00 12,1 11,3 10,7 12,1 12,7 6 3 15 8 ZZW 1022,4 9 0 0,8
13.11.2018 01:00:00 11,5 10,7 10,8 12,1 12,7 2 1 5 3 ZO 1021,6 12 0 0,3
13.11.2018 00:00:00 11,9 11,0 11,0 12,1 12,7 3 1 9 5 Z 1021,1 10 0 1,4
12.11.2018 23:00:00 12,4 11,1 11,7 12,1 12,7 7 4 16 9 N 1020,6 5 0 2,4
12.11.2018 22:00:00 13,1 11,8 12,3 12,0 12,7 7 4 20 11 WZW 1020,4 7 0 2,0
12.11.2018 21:00:00 13,4 12,3 12,5 12,0 12,7 4 2 8 5 OZO 1019,4 18 0 0,0
12.11.2018 20:00:00 13,8 12,2 12,8 12,0 12,7 3 2 12 6 ZZW 1019,1 53 0 3,0
12.11.2018 19:00:00 14,6 12,3 13,2 11,9 12,7 6 3 12 7 ZZW 1018,7 10 0 0,4
12.11.2018 18:00:00 14,3 13,0 13,1 11,8 12,7 2 1 8 4 ZO 1018,1 37 0 0,2
12.11.2018 17:00:00 14,8 13,0 13,8 11,7 12,7 5 3 31 17 W 1017,3 10 0 0,8
12.11.2018 16:00:00 16,2 12,6 14,7 11,7 12,7 22 12 48 26 W 1016,5 34 0 0,2
12.11.2018 15:00:00 21,2 10,9 20,6 11,5 12,7 26 14 50 27 ZZW 1014,3 60 40 0,0
12.11.2018 14:00:00 20,1 11,6 20,1 11,5 12,7 18 10 39 21 Z 1014,4 60 29 0,0
12.11.2018 13:00:00 19,4 11,2 19,6 11,4 12,7 23 12 47 25 ZZW 1014,6 54 16 0,0
12.11.2018 12:00:00 18,3 10,6 18,0 11,4 12,7 24 13 43 23 Z 1014,5 53 2 0,0
12.11.2018 11:00:00 17,9 10,3 16,4 11,4 12,7 22 12 44 24 Z 1014,5 60 5 0,0
12.11.2018 10:00:00 16,8 9,5 16,5 11,4 12,7 23 12 47 26 Z 1014,2 60 43 0,0
12.11.2018 09:00:00 15,9 8,4 13,9 11,5 12,7 14 8 24 13 Z 1014,0 57 48 0,0
12.11.2018 08:00:00 14,7 8,9 12,4 11,5 12,7 10 5 26 14 Z 1013,7 60 0 0,0
12.11.2018 07:00:00 14,6 9,2 12,7 11,5 12,7 8 5 31 17 Z 1013,2 60 0 0,0
12.11.2018 06:00:00 14,9 9,5 13,0 11,5 12,7 12 6 29 16 Z 1012,8 60 0 0,0
12.11.2018 05:00:00 14,7 9,9 13,0 11,5 12,7 10 5 29 15 Z 1012,7 60 0 0,0
12.11.2018 04:00:00 15,2 10,0 13,4 11,5 12,7 12 7 23 13 Z 1012,8 60 0 0,0
12.11.2018 03:00:00 14,8 10,0 12,0 11,5 12,7 9 5 16 9 Z 1013,1 60 0 0,0
12.11.2018 02:00:00 14,3 9,7 12,7 11,5 12,7 7 4 19 10 ZZO 1013,2 60 0 0,0
12.11.2018 01:00:00 14,9 9,9 13,4 11,4 12,7 9 5 23 12 Z 1013,2 60 0 0,0
12.11.2018 00:00:00 14,8 9,8 12,8 11,4 12,7 7 4 23 13 ZZW 1013,4 60 0 0,0
11.11.2018 23:00:00 15,0 10,2 13,3 11,4 12,7 5 3 17 9 ZZO 1013,4 60 0 0,0
11.11.2018 22:00:00 15,7 10,5 14,6 11,4 12,7 8 4 30 16 Z 1013,0 60 0 0,0
11.11.2018 21:00:00 16,1 10,6 15,0 11,4 12,7 19 11 40 22 Z 1012,5 60 0 0,0
11.11.2018 20:00:00 15,6 10,8 14,3 11,3 12,7 22 12 41 22 Z 1012,0 60 0 0,0
11.11.2018 19:00:00 15,1 11,1 13,0 11,3 12,7 16 9 26 14 Z 1011,6 60 0 0,0
11.11.2018 18:00:00 14,5 10,7 12,5 11,3 12,7 14 8 26 14 ZZO 1011,4 60 0 0,0
11.11.2018 17:00:00 16,0 10,5 14,6 11,2 12,7 16 9 38 20 Z 1011,0 60 23 0,0
11.11.2018 16:00:00 16,8 10,4 15,9 11,1 12,7 16 9 43 23 Z 1010,3 60 51 0,0
11.11.2018 15:00:00 17,3 9,2 17,0 11,0 12,7 26 14 48 26 Z 1010,3 60 55 0,0
11.11.2018 14:00:00 16,7 8,4 16,3 10,9 12,7 23 12 45 24 Z 1010,8 60 34 0,0
11.11.2018 13:00:00 15,5 9,4 16,3 10,9 12,7 19 10 40 22 Z 1011,3 51 24 0,0
11.11.2018 12:00:00 15,3 9,0 17,1 10,9 12,7 27 15 45 24 Z 1011,5 56 60 0,0
11.11.2018 11:00:00 13,8 9,0 15,3 10,9 12,7 20 11 41 22 Z 1011,2 58 60 0,0
11.11.2018 10:00:00 12,0 8,5 12,1 10,9 12,7 19 10 40 21 Z 1011,4 56 60 0,0
11.11.2018 09:00:00 10,9 8,5 9,8 11,0 12,7 19 10 40 22 Z 1011,4 45 34 0,0
11.11.2018 08:00:00 10,3 8,2 8,8 11,0 12,7 18 10 34 18 Z 1010,7 60 0 0,0
11.11.2018 07:00:00 10,0 8,1 8,8 11,0 12,7 11 6 26 14 Z 1009,8 60 0 0,0
11.11.2018 06:00:00 10,3 8,4 9,1 11,0 12,7 16 9 40 21 Z 1009,2 60 0 0,4
11.11.2018 05:00:00 10,6 8,5 9,5 11,0 12,7 16 8 29 15 Z 1008,7 6 0 2,4
11.11.2018 04:00:00 11,3 8,9 9,9 11,1 12,7 11 6 25 14 Z 1008,5 18 0 0,4
11.11.2018 03:00:00 11,8 8,8 10,3 11,1 12,7 16 9 35 19 ZZW 1008,6 39 0 0,0
11.11.2018 02:00:00 12,0 9,4 10,5 11,1 12,7 16 9 35 19 ZZW 1008,6 59 0 0,0
11.11.2018 01:00:00 11,3 10,2 9,0 11,0 12,7 10 6 21 11 ZZW 1008,5 43 0 0,2
11.11.2018 00:00:00 11,0 9,9 9,2 11,1 12,7 8 5 18 10 Z 1008,0 46 0 0,8
10.11.2018 23:00:00 11,2 9,6 9,8 11,0 12,7 8 4 22 12 Z 1008,3 60 0 0,0
10.11.2018 22:00:00 10,9 9,5 10,1 11,0 12,7 13 7 22 12 Z 1007,4 20 0 1,4
10.11.2018 21:00:00 11,4 9,3 10,3 11,0 12,7 13 7 32 18 Z 1007,4 20 0 0,8
10.11.2018 20:00:00 12,4 11,1 11,7 10,9 12,7 7 4 22 12 ZW 1007,0 11 0 0,6
10.11.2018 19:00:00 12,8 11,0 11,7 10,9 12,7 13 7 25 13 ZZW 1006,8 9 0 1,2
10.11.2018 18:00:00 13,0 10,9 11,7 10,8 12,7 13 7 35 19 Z 1006,5 57 0 0,4
10.11.2018 17:00:00 13,4 10,9 11,9 10,7 12,7 16 9 33 18 Z 1006,3 12 0 0,2
10.11.2018 16:00:00 13,3 11,2 12,3 10,7 12,7 16 9 30 16 Z 1006,1 20 0 0,2
10.11.2018 15:00:00 13,0 11,2 12,2 10,6 12,7 15 8 29 15 ZZO 1006,5 33 0 0,4
10.11.2018 14:00:00 13,2 11,4 12,3 10,5 12,7 14 8 37 20 Z 1007,1 15 0 1,4
10.11.2018 13:00:00 13,3 11,2 12,3 10,5 12,7 19 11 36 20 Z 1007,1 10 0 1,0
10.11.2018 12:00:00 13,7 10,9 12,6 10,4 12,7 19 10 36 19 ZZW 1007,3 20 0 0,4
10.11.2018 11:00:00 13,3 11,0 11,7 10,4 12,7 16 8 33 18 Z 1007,7 20 0 1,0
10.11.2018 10:00:00 13,3 9,9 11,6 10,4 12,7 15 8 40 22 ZZW 1007,5 19 0 0,2
10.11.2018 09:00:00 13,7 9,1 12,2 10,4 12,7 14 7 28 15 ZZW 1007,3 60 0 0,0
10.11.2018 08:00:00 13,5 9,0 11,8 10,4 12,7 14 7 33 18 Z 1007,3 60 0 0,0
10.11.2018 07:00:00 13,9 8,5 12,8 10,4 12,7 17 9 34 18 Z 1006,9 60 0 0,0
10.11.2018 06:00:00 13,7 8,1 12,3 10,4 12,7 19 11 42 23 Z 1006,7 60 0 0,0
10.11.2018 05:00:00 13,2 7,6 9,4 10,4 12,7 16 9 29 16 Z 1007,2 60 0 0,0
10.11.2018 04:00:00 10,3 6,3 8,0 10,5 12,7 8 4 13 7 ZZO 1007,8 60 0 0,0
10.11.2018 03:00:00 9,9 6,4 8,3 10,5 12,7 8 5 16 9 ZO 1008,3 51 0 0,0
10.11.2018 02:00:00 9,8 6,1 6,9 10,6 12,7 9 5 14 7 ZZO 1009,0 58 0 0,0
10.11.2018 01:00:00 10,3 6,6 8,0 10,6 12,7 7 4 10 5 ZZO 1009,6 54 0 0,0
10.11.2018 00:00:00 11,1 7,4 7,7 10,6 12,7 8 5 19 11 ZZO 1010,4 51 0 0,0
09.11.2018 23:00:00 10,4 7,5 7,2 10,6 12,7 9 5 13 7 ZZO 1010,9 48 0 0,0
09.11.2018 22:00:00 11,4 7,7 7,4 10,6 12,7 8 4 13 7 ZZO 1011,5 56 0 0,0

tt = temperatuur
td = dauwpunt
tt 5cm = temperatuur 5cm
tt -20cm = temperatuur -20cm
tt -100cm = temperatuur -100cm
ff = windsnelheid
fx = windstoten
dd = windrichting
ppp = luchtdruk
vv = zicht
sd = Zonneschijnduur
rr = neerslag

Weerstations in de omgeving